Showing default

HBTSS-SV2, 58955

Orbit data source: Space-Track

HBTSS-SV2, 58955 is a payload satellite owned by MDA (US) in LEO that was launched on Wed, 14 Feb 2024 UTC via an FALCON 9 launch vehicle from the Air Force Eastern Test Range (AFETR). Payload-class satellites include a variety of spacecraft equipped with specific instruments for various scientific and technological missions. These include communications satellites like Starlink; space stations such as the ISS; scientific satellites like the Hubble; Earth observation satellites from companies like Planet Labs, Umbra, and HawkEye 360; GPS; miniature CubeSats for education and research; and military/defense satellites.

Loading next visibility...
Identifier
58955, 2024-028A
Orbit
LEO
Country
Flag of USUS
Related business
Manufacturer
NGIS
Mission
Operational Commercial Early Warn
Bus & Motor
HBT-NG, Unknown motor
Mass
~1,000 kg wet, ~1,000 kg dry
Launch date (UTC)
2024-02-14 (3 years ago)
Launch vehicle
FALCON 9
Launch site
Air Force Eastern Test Range (AFETR)
Object type
Payload
Rocket body
Debris
Shape & HBR
Box + 2 Pan, 1.0 m
Radar Cross Section
1.012 m², Large (>1 m²)

Expand to show TLE details & history
Last TLE update: 16 hours ago

TLE from 16 hours ago
0 HBTSS-SV2
1 58955U 24028A   26257.94344500  .00000040  00000-0  13237-3 0  9992
2 58955  39.9930 351.5224 0018272  31.9140 328.2710 13.70487100129384
Epoch: 2026-09-14T22:38Z
TLE epoch observation values (Epoch: 2026-09-14T22:38:33.648Z)
Latitude
-0.00004°
Longitude
17.96566°
Altitude
985.85 km
Speed
7.366 km/s
True Right ascension
23h 26m 05s
True Declination
0° 00' 00"
Sunlit
Object was in full shadow at epoch
Visualization orbit readout
Latitude
Unknown
Longitude
Unknown
Altitude
Unknown
Speed
Unknown
Apparent Right ascension
Unknown
Apparent Declination
Unknown
Sunlit
N/A
Visualization observer readout
Local Sidereal Time
07:11:04
Azimuth
Unknown
Elevation
Unknown
Doppler factor
Unknown
Orbital elements
Apogee altitude
1,013.581 km
Perigee altitude
986.618 km
Semi-major axis
7,378.236 km
Eccentricity
0.00183
Inclination
39.993°
RAAN
351.5224°
Arg. of periapsis
31.914°
True anomaly
328.16067°
Mean anomaly
328.271°
Eccentric anomaly
328.21586°
Mean motion
3.42464 °/min
Orbital period
105.12 mins
BSTAR
0.00013237
Loading maneuver chart data...
Computing Atmospheric mass density...
Loading historical data...
Loading historical data...
Loading historical data...
Loading historical data...
Loading historical data...
Loading historical data...
Loading historical data...
Other satellites on launch #28 in the year 2024 (2024-02-14 UTC)

Documentation

Showing up to 5 results
|